Weather Roundup
Issued by NWS Chicago, IL

Home | Current Version | Previous Version | Text Only | Print | Product List | Glossary On
Versions: 1 2 3 4 5 6 7 8 9 10 11 12 13 14 15 16 17 18 19 20 21 22 23 24 25 26 27 28 29 30 31 32 33 34 35 36 37 38 39 40 41 42 43 44 45 46 47 48 49 50
332
NZUS59 KLOT 200908
HRRLOT

CHICAGO AREA WEATHER ROUNDUP
NATIONAL WEATHER SERVICE CHICAGO/ROMEOVILLE IL
300 AM CST MON NOV 20 2017

NOTE: "FAIR" INDICATES FEW OR NO CLOUDS BELOW 12,000 FEET WITH NO
SIGNIFICANT WEATHER AND/OR OBSTRUCTIONS TO VISIBILITY.

* THESE STATIONS ARE NOT UNDER NWS QUALITY CONTROL. THEY ALSO MAY NOT
  REPORT WEATHER SUCH AS PRECIPITATION OR FOG.

ILZ005-006-012>014-019>023-201000-
NORTHEAST ILLINOIS

CITY           SKY/WX    TMP DP  RH WIND       PRES   REMARKS
OHARE          PTCLDY    32  22  66 SW12      30.00S WCI  23
MIDWAY         PTCLDY    32  23  69 SW9       30.01F WCI  24
AURORA         CLOUDY    29  23  78 S7        30.01F WCI  22
LANSING*       PTCLDY    31  25  79 SW10      30.04S WCI  22
JOLIET*        CLOUDY    31  25  79 S5        30.04S WCI  26
WAUKEGAN       CLEAR     31  23  72 SW15      29.96F WCI  20
DUPAGE AIRPORT CLOUDY    26  23  88 S7        30.00F WCI  18
WHEELING       CLEAR     32  23  69 S7        30.01S WCI  26
KANKAKEE*      CLOUDY    31  24  75 SW6       30.07S WCI  25
MORRIS*        CLOUDY    32  25  74 SW10      30.02F WCI  24
LEWIS AIRPORT* CLOUDY    29  25  83 SW6       30.03S WCI  23
NORTHERLY ISL    N/A     33  23  67 S7          N/A  WCI  27
$$

WIZ051-052-058>065-066-070>072-201000-
SOUTHEAST WISCONSIN

CITY           SKY/WX    TMP DP  RH WIND       PRES   REMARKS
MILWAUKEE      PTCLDY    31  23  72 SW10      29.94F WCI  22
KENOSHA*       CLEAR     32  23  69 SW12G22   29.96F WCI  23
RACINE*        CLEAR     32  23  69 SW12      29.96F WCI  23
BURLINGTON     CLEAR     31  28  90 SW9       29.94F WCI  23
WAUKESHA       CLEAR     30  23  74 SW9       29.93F WCI  22
WEST BEND      CLEAR     30  23  74 SW3       29.90F
$$

INZ001>003-010>013-019-020-201000-
NORTHWEST INDIANA

CITY           SKY/WX    TMP DP  RH WIND       PRES   REMARKS
GARY*          CLEAR     33  22  63 SW7       30.04F WCI  27
MICHIGAN CITY* NOT AVBL
RENSSELAER*    NOT AVBL
VALPARAISO     CLEAR     29  22  75 SW9       30.05F WCI  20
$$

LMZ740>746-201000-
SOUTHERN LAKE MICHIGAN

STATION/POSITION TIME  SKY/WX   TEMP WIND        PRES    VSBY
                                AIR  DIR/SP/G
                 (UTC)          (F)  (DEG/KT/KT) (MB)    (MI)
HARRISON CRIB    0840            38  220/ 21/ 24   N/A
BURNHAM HARBOR   0900            33  200/  4/ 10   N/A
CALUMET HARBOR   0848            33  210/  9/ 13 1016.0S
BURNS HARBOR     0840            32  210/  9/ 14 1017.3F
MICHIGAN CITY    0840            34  200/ 16/ 19   N/A
$$

ABBREVIATIONS USED IN REMARKS
   TC - TEMPERATURE IN CELSIUS
  WCI - WIND CHILL INDEX
   HX - HEAT INDEX
  VSB - VISIBILITY
$$




USA.gov is the U.S. government's official web portal to all federal, state and local government web resources and services.